Location: Lecco
(45.8566°N, 9.3977°E)
Time: 13:57:30
(UTC+02:00)

ISS - Pass Details

Date: 17 July 2018
Orbit: 402 x 408 km, 51.6° (Epoch: 21 July)

Event Time Altitude Azimuth Distance (km) Brightness Sun altitude
Exits shadow 03:13:52 - 290° (WNW) 2,164 -0.2 -18.8°
Reaches altitude 10° 03:15:43 10° 301° (WNW) 1,470 -1.0 -18.6°
Maximum altitude 03:18:38 29° 3° (N) 789 -1.7 -18.4°
Drops below altitude 10° 03:21:34 10° 66° (ENE) 1,472 -0.3 -18.2°
Sets 03:23:50 0° 78° (ENE) 2,333 0.6 -18.0°
